Location: Lick Creek
(37.5226°N, 89.0751°W)
Time: 05:11:33
(UTC+00:00)

Daily predictions for brighter satellites

Satellite Brightness Start Highest point End
(mag) Time Altitude Azimuth Time Altitude Azimuth Time Altitude Azimuth
Aureole 1 Rocket 2.2 00:02:47 10° SSW 00:05:46 72° WNW 00:07:06 29° N
Cosmos 407 Rocket 3.7 00:00:59 10° S 00:05:55 48° ESE 00:08:40 25° NE
CZ-4 R/B 4.4 00:02:33 10° SSE 00:06:38 60° ENE 00:10:44 10° N
Cosmos 1140 Rocket 4.1 00:03:15 10° SSE 00:07:48 33° E 00:08:41 31° E
Cosmos 2026 Rocket 3.8 00:04:00 10° S 00:10:01 70° E 00:16:02 10° NNE
SKYMED 2 3.8 00:11:16 10° N 00:15:36 71° WNW 00:19:54 10° SSW
Cosmos 1992 Rocket 4.3 00:10:32 10° NNW 00:15:44 67° WSW 00:20:54 10° S
FengYun 1-2 T 4.1 00:11:10 10° SSE 00:16:39 87° ENE 00:22:09 10° NNW
Cosmos 1900 4.1 00:11:59 10° NNW 00:16:53 75° ENE 00:21:44 10° SSE
Cosmos 1782 Rocket 3.5 00:14:25 10° N 00:18:42 57° E 00:22:57 10° SSE
NOAA 11 4.3 00:18:16 10° SE 00:23:28 49° ENE 00:28:43 10° N
Cosmos 1703 Rocket 4.0 00:20:56 10° SSW 00:25:20 62° W 00:29:47 10° N
FALCON 9 DEB 4.1 00:22:14 10° WSW 00:25:32 38° NW 00:26:01 36° NNW
Shenzhou-11 Module 4.1 00:25:09 10° NW 00:26:13 18° NW 00:26:13 18° NW
BREEZE-M DEB (TANK) 3.4 00:25:27 10° NW 00:27:30 26° NNW 00:27:30 26° NNW
BREEZE-M DEB (TANK) 3.8 00:27:22 10° NW 00:29:42 22° NNW 00:29:42 22° NNW
Cosmos 2278 Rocket 3.3 00:26:31 10° NW 00:31:53 45° WSW 00:37:12 10° S
NOAA 15 4.5 00:27:39 10° SSE 00:32:55 87° ENE 00:38:12 10° NNW
Okean-O 4.4 00:30:01 10° SSW 00:33:59 32° W 00:37:58 10° NNW
Cosmos 1655 Rocket 4.1 00:28:02 10° SSE 00:34:07 51° E 00:36:03 38° NE
CZ-3B R/B 4.4 00:30:49 10° S 00:34:46 15° SE 00:36:05 14° SE
SL-16 R/B 2.3 00:36:12 10° SSW 00:41:52 73° WNW 00:44:45 30° NNE
Meteor 1-19 Rocket 4.0 00:37:42 10° S 00:43:14 69° E 00:44:11 57° NE
Cosmos 292 Rocket 4.2 00:40:21 10° NNW 00:45:10 62° WSW 00:49:55 10° S
OAO 3 Rocket 3.3 00:44:44 10° W 00:49:23 66° S 00:49:23 66° S
Cosmos 2237 Rocket 4.3 00:49:49 10° WSW 00:54:10 22° NW 00:58:32 10° N
Meteor 2-4 Rocket 4.5 00:48:25 10° S 00:52:18 39° SSE 00:52:18 39° SSE
Cosmos 1190 Rocket 4.3 00:52:23 10° SSW 00:57:32 62° WNW 00:58:55 45° NNW
Cosmos 676 Rocket 4.2 00:53:52 10° SSW 00:58:01 58° S 00:58:01 58° S
YAOGAN 1 4.0 01:03:25 10° SSW 01:07:25 37° W 01:11:27 10° NNW
CZ-4 R/B 3.5 01:04:10 10° SSW 01:07:27 25° W 01:10:43 10° NW
OAO 2 Rocket 4.2 01:12:20 10° W 01:16:05 47° WSW 01:16:05 47° WSW
ISS -0.5 01:15:24 10° WNW 01:15:49 12° WNW 01:15:49 12° WNW
CZ-3B R/B 4.4 02:22:16 10° SW 02:24:59 22° SSW 02:24:59 22° SSW
SL-16 R/B 4.0 09:40:15 28° ESE 09:40:15 28° ESE 09:43:21 10° SE
CZ-4C R/B 3.4 10:15:53 41° N 10:18:35 60° NE 10:26:46 10° SE
Cosmos 2263 Rocket 3.8 10:16:50 10° SSE 10:21:42 31° ESE 10:26:34 10° NE
BREEZE-M DEB (TANK) 4.4 10:25:42 53° W 10:27:58 69° NW 10:32:41 10° NE
Okean O Rocket 4.5 10:30:32 10° NE 10:33:24 17° E 10:36:15 10° SE
Cosmos 407 Rocket 3.7 10:34:45 60° NNE 10:35:33 70° ENE 10:40:52 10° SSE
Cosmos 1140 Rocket 4.4 10:33:50 31° NNE 10:35:55 47° ENE 10:40:56 10° SE
Cosmos 2242 Rocket 4.3 10:37:47 41° NE 10:38:54 52° E 10:43:16 10° SSE
ALOS 4.0 10:39:33 10° NNE 10:43:46 33° E 10:47:58 10° SSE
Nadezhda 4 Rocket 4.0 10:39:14 11° N 10:45:12 79° E 10:51:20 10° S
Cosmos 1932 4.3 10:45:34 47° SW 10:47:31 76° WNW 10:53:58 10° NNE
Lacrosse 5 3.0 10:49:21 29° SSW 10:49:21 29° SSW 10:52:22 10° S
Aureole 1 Rocket 4.3 10:49:23 46° WSW 10:49:23 46° WSW 10:55:34 10° S
GEOS 3 Rocket 3.8 10:50:21 10° SE 10:55:23 67° NE 10:57:27 36° NNW
USA 234 3.8 10:55:24 10° NNE 11:01:15 37° NNW 11:02:02 36° NW
Cosmos 1943 4.2 11:02:52 11° N 11:08:03 43° ENE 11:13:22 10° SE
SKYMED 2 3.8 11:03:54 10° SSE 11:08:12 70° ENE 11:11:32 17° N
BREEZE-M DEB (TANK) 4.0 11:13:24 21° SSW 11:13:24 21° SSW 11:15:07 10° SSE
METEOR-M 4.3 11:10:31 10° NNE 11:15:53 73° ESE 11:21:13 10° S
Cosmos 1634 Rocket 4.0 11:14:12 10° S 11:20:25 86° E 11:26:38 10° N
Cosmos 2056 Rocket 4.5 11:22:38 27° NW 11:22:38 27° NW 11:25:47 10° N
Okean 1 4.3 11:17:54 10° N 11:21:44 46° E 11:25:33 10° SSE
SL-16 R/B 3.1 11:22:12 27° WSW 11:22:12 27° WSW 11:26:43 10° SSW
Cosmos 2034 Rocket 4.4 11:16:47 10° SW 11:22:35 38° WNW 11:28:28 10° N
Cosmos 1340 3.7 11:19:11 10° SSE 11:22:46 46° E 11:26:23 10° NNE
Timation 1 Rocket 4.3 11:18:00 10° SSW 11:23:58 89° WNW 11:29:58 10° NNE
Starlink Launch 2 trailer 4.4 11:24:15 19° NNE 11:24:21 20° NE 11:26:15 10° E
Cosmos 1190 Rocket 4.3 11:25:29 30° NW 11:27:25 43° WSW 11:32:20 10° S
Cosmos 1603 3.7 11:23:43 13° NNW 11:28:50 88° ENE 11:34:32 10° SSE
Cosmos 676 Rocket 3.9 11:25:00 17° NNW 11:29:07 74° WSW 11:34:23 10° S
Geosat 3.9 11:24:24 10° SSE 11:29:23 75° WSW 11:33:18 17° NNW
Okean 1-7 3.0 11:25:07 10° N 11:29:32 88° W 11:33:55 10° S
Cosmos 1602 3.7 11:27:12 10° S 11:31:00 84° E 11:34:51 10° N
Cosmos 1461 2.9 11:29:28 27° NW 11:31:46 81° WSW 11:36:11 10° SSE
Cosmos 1627 Rocket 4.5 11:27:40 10° N 11:33:58 89° W 11:40:18 10° S
Helios 1A Rocket 2.9 11:34:07 10° NNE 11:38:09 85° ESE 11:42:10 10° SSW
Cosmos 1954 Rocket 4.0 11:34:35 14° NNW 11:39:06 63° WSW 11:44:19 10° S
Cosmos 1420 Rocket 4.2 11:35:41 10° SW 11:40:40 45° WNW 11:45:40 10° N
Cosmos 2195 Rocket 4.5 11:38:01 10° NNW 11:44:17 67° W 11:50:32 10° S
Cosmos 1484 Rocket 3.8 11:41:46 10° NNW 11:45:01 25° WNW 11:48:13 10° SW
Cosmos 2142 Rocket 4.5 11:39:38 10° S 11:46:02 79° W 11:52:27 10° N
FALCON 9 DEB 3.4 11:46:57 24° N 11:47:50 35° NE 11:50:00 10° ESE
Cosmos 2084 Rocket 3.8 11:46:14 21° NW 11:48:52 48° WSW 11:53:04 10° SSE
Cosmos 1092 Rocket 4.2 11:45:34 10° NNW 11:51:25 47° W 11:57:13 10° SSW
SL-23 DEB 3.9 11:51:40 22° W 11:53:14 37° NW 11:56:15 10° NE
STARLINK 1027 4.0 11:54:37 15° NNW 11:56:38 34° NE 11:59:21 10° ESE
STARLINK 1028 4.0 11:54:50 15° NNW 11:56:52 34° NE 11:59:35 10° ESE
STARLINK 1021 4.0 11:55:03 15° NNW 11:57:05 34° NE 11:59:48 10° ESE
